sat.trackr.live / text

‹ back to catalog

STARLINK-32347

NORAD 61010 · 2024-158W

PAYLOAD ACTIVE UNKNOWN

§ Identity

Operator
Country
US
Launch date
2024-09-05
Launch site
AFETR
Launch vehicle
Mass (kg)
RCS (m²)

Purposes: comms

External: N2YO · Heavens-Above · Gunter

§ Orbital elements

Epoch: 2026-09-21T07:03:42.142464Z

Period
93.85 min
Inclination
53.1594°
Eccentricity
0.0001382
Mean motion
15.34388288 rev/d
Perigee alt
461.8 km
Apogee alt
463.7 km
Semi-major
6,840.9 km
B*
1.8115e-5
RAAN
233.8159°
Arg perigee
82.3465°
Mean anomaly
277.7694°
Rev number
11,557

§ Raw data

STARLINK-323471 61010U 24158W   26264.29423776  .00000236  00000+0  18115-4 0  99982 61010  53.1594 233.8159 0001382  82.3465 277.7694 15.34388288115571

JSON: /api/v1/satellites/61010 · /tle

For live sub-satellite position, see the globe view (requires WebGL).

§ Visibility from observer

Set your observer location to see the next 7 days of passes ≥ 10°. The values pass through the URL so the page stays shareable.

No JS? Fill the form by hand. The geolocation button needs JavaScript.